Location: Newark
(47.2333°N, 7.7667°E)
Time: 01:50:09
(UTC+00:00)

N. Korean satellite - Visible Passes

Search period start: 22 February 2020 00:00
Search period end: 03 March 2020 00:00
Orbit: 456 x 505 km, 97.2° (Epoch: 21 February)

Date Brightness Start Highest point End Pass type
(mag) Time Alt. Az. Time Alt. Az. Time Alt. Az.
22 Feb 8.8 04:43:12 10° NNE 04:46:29 29° E 04:49:44 10° SSE visible
23 Feb 9.9 04:18:27 10° NE 04:20:45 16° E 04:23:02 10° SE visible
23 Feb 7.0 05:50:49 10° N 05:54:21 43° WNW 05:57:52 10° SW visible
24 Feb 6.6 05:25:08 10° NNE 05:28:52 87° WNW 05:32:34 10° SSW visible
24 Feb 10.3 17:38:56 10° WSW 17:40:28 12° W 17:42:01 10° WNW visible
25 Feb 7.9 04:59:42 10° NNE 05:03:17 45° E 05:06:51 10° S visible
26 Feb 9.2 04:34:35 10° NE 04:37:37 23° E 04:40:37 10° SSE visible
27 Feb 10.1 04:10:13 10° ENE 04:11:50 12° E 04:13:28 10° ESE visible
27 Feb 6.7 05:41:55 10° N 05:45:34 54° WNW 05:49:09 10° SSW visible
28 Feb 6.9 05:16:19 10° NNE 05:20:03 74° ESE 05:23:42 10° S visible
29 Feb 8.4 04:50:59 10° NNE 04:54:26 35° E 04:57:49 10° SSE visible
01 Mar 9.6 04:26:01 10° NE 04:28:42 19° E 04:31:21 10° SE visible
02 Mar 6.6 05:33:02 10° N 05:36:44 69° WNW 05:40:21 10° SSW visible
